Hors Challenge

Naturarun - La Hulpe (23.00 km)

dimanche 21 novembre 2021

Vous pouvez trouver Le classement original sur : https://my.raceresult.com
 
NATURARUN - LA HULPE
DISTANCE : 23.00 km
dimanche 21 novembre 2021
 
Place dos NOM Catégorie Pl/cat temps temps/km Vitesse
01:00:00              
1 1035 STIJN KAYENBERGH SH 1 1:28:56 03:52 15.52
2 5688 JAN TEUWEN SH 2 1:29:04 03:52 15.49
3 3213 CEDRIC VAN DEN BOSCH SH 3 1:34:34 04:07 14.59
4 5663 JAN VAN DEN BOSSCHE SH 4 1:38:41 04:17 13.98
5 5680 WANNES VYVEY SH 5 1:38:42 04:17 13.98
6 40 KENNETH BEECKMAN SH 6 1:38:57 04:18 13.95
7 48 WOUTER HENDRICKX SH 7 1:39:49 04:20 13.83
8 5665 THIJS BLONDEEL SH 8 1:40:10 04:21 13.78
9 5666 DRIES LEYS V1 1 1:40:25 04:22 13.74
10 1084 WILLEM T'HOOFT SH 9 1:40:55 04:23 13.67
11 5696 GUILLAUME DE LA BROSSE SH 10 1:41:20 04:24 13.62
12 1212 FREDERIC VOET SH 11 1:41:23 04:24 13.61
13 5670 BENOÎT MYAUX V1 2 1:42:07 04:26 13.51
14 1082 CORENTIN DE BIOLLEY SH 12 1:42:28 04:27 13.47
15 5693 OSCAR AUBI SH 13 1:42:34 04:28 13.45
16 5689 MAXIME BELLEFROID SH 14 1:43:23 04:30 13.35
17 1355 CLÉMENT GODFRIN SH 15 1:43:33 04:30 13.33
18 1269 STEVEN HEYLEN SH 16 1:44:44 04:33 13.18
19 5668 WIM BRACKE V1 3 1:45:36 04:35 13.07
20 1245 TOM CLUTS V1 4 1:45:38 04:36 13.06
21 239 KIM KARLSSON V1 5 1:46:47 04:39 12.92
22 5669 DEVID VERRAES V1 6 1:47:03 04:39 12.89
23 5662 JIRÍ PAVLIŠ SH 17 1:47:17 04:40 12.86
24 1415 BRUNO KESTERMONT V2 1 1:47:28 04:40 12.84
25 1151 MAXIME DE RAEYMAEKER SH 18 1:47:48 04:41 12.80
26 5667 PETER BOLLE V1 7 1:48:11 04:42 12.76
27 5664 ELFVER VANDENBRAEMBUSSCHE V1 8 1:48:42 04:44 12.70
28 181 BERT DE VOS SH 19 1:49:11 04:45 12.64
29 3203 LAURENT SCHELFHOUT SH 20 1:49:59 04:47 12.55
30 3209 PETER DECROCK V1 9 1:50:02 04:47 12.54
31 22 JOHNNY ROELANDTS V1 10 1:50:30 04:48 12.49
32 1091 BAPTISTE BARBIER SH 21 1:51:01 04:50 12.43
33 1132 JEAN CAROT SH 22 1:51:07 04:50 12.42
34 1475 JORN SOCQUET V1 11 1:51:33 04:51 12.37
35 1165 DAAN BORN SH 23 1:52:13 04:53 12.30
36 1240 IVAN LEMAIRE V1 12 1:52:22 04:53 12.28
37 1115 ALEXANDRO DI RUGGIERO SH 24 1:52:29 04:53 12.27
38 5661 PASCAL DIERYCK V2 2 1:53:05 04:55 12.20
39 1364 LUCA GUIGGI V1 13 1:53:15 04:55 12.19
40 1365 BARTEK SZOSTKO V1 14 1:53:26 04:56 12.17
41 1087 MAXIME MAHAUDEN SH 25 1:53:50 04:57 12.12
42 5694 RIA VAN LANDEGHEM A3 1 1:54:29 04:59 12.05
43 1318 ALEXANDRE VANDERZYPEN SH 26 1:54:46 04:59 12.02
44 1113 CÉCILE MALISOUX SD 1 1:54:49 05:00 12.02
45 3214 FABIEN LAUREYS SH 27 1:54:55 05:00 12.01
46 5709 JONAS MOERMAN V1 15 1:55:38 05:02 11.93
47 1158 BJORN DE MESMAECKER V1 16 1:56:24 05:04 11.86
48 1328 SENNE LIEBAUT SH 28 1:56:38 05:04 11.83
49 3217 STEVE SZUSTAK V1 17 1:57:00 05:05 11.79
50 1296 GUY LIEBAUT V2 3 1:57:05 05:05 11.79
51 78 PASCAL CAUWELIER V1 18 1:57:16 05:06 11.77
52 5687 ERWIN BRUNINX V3 1 1:57:24 05:06 11.75
53 1275 MICHEL DERVILLE SH 29 1:57:52 05:07 11.71
54 5708 ARTHUR SEDYN SH 30 1:58:24 05:09 11.66
55 5684 BART PEETERS V1 19 1:58:41 05:10 11.63
56 461 ROBIN TOUBAC SH 31 1:59:02 05:11 11.59
57 5682 JOACHIM BLIECK V1 20 2:00:07 05:13 11.49
58 3208 STEPHANE KEMPENEERS XXX   2:00:15 05:14 11.48
59 1274 MIKAEL DE BIE SH 32 2:00:39 05:15 11.44
60 1231 MATHIAS VAN ONCKELEN SH 33 2:01:17 05:16 11.38
61 3238 ROEL VAN HEURCK SH 34 2:01:18 05:16 11.38
62 1233 ARNAUD TIBERGHIEN SH 35 2:01:33 05:17 11.35
63 568 MANUEL BLOMMAERT SH 36 2:02:02 05:18 11.31
64 1110 KURT VAN DESSEL V1 21 2:02:03 05:18 11.31
65 262 PACO CRUL V1 22 2:02:10 05:19 11.30
66 1380 MICHAËL CLAESSENS SH 37 2:02:21 05:19 11.28
67 5674 ANTOINETTE LOISE A1 1 2:02:22 05:19 11.28
68 5702 HANNES DEGRAEVE SH 38 2:02:49 05:20 11.24
69 1294 JOOST BODDAERT SH 39 2:03:17 05:22 11.19
70 1382 JOLIEN BORGHIJS SD 2 2:03:22 05:22 11.19
71 1108 JOHANNES NITSCHKE SH 40 2:03:23 05:22 11.18
72 5683 MARC BEFFORT V2 4 2:03:27 05:22 11.18
73 5701 ELENA BEFFORT SD 3 2:03:28 05:22 11.18
74 1381 MATTHIJS VERSTRAETEN SH 41 2:03:38 05:23 11.16
75 1042 GEOFFREY SCHOLLAERT V1 23 2:03:41 05:23 11.16
76 1032 SOLÈNE AVRILLAUD SD 4 2:03:54 05:23 11.14
77 5707 SOPHIE BESTWICK SD 5 2:03:55 05:23 11.14
78 1338 REINOUT VAN RUYSEVELT V1 24 2:04:12 05:24 11.11
79 45 JEROEN TIEBOUT V1 25 2:04:12 05:24 11.11
80 1273 BRUNO HESSENS V2 5 2:05:02 05:26 11.04
81 3205 MATTHIEU DESPLAN V1 26 2:05:26 05:27 11.00
82 1468 JONATHAN VAN MALLEGHEM SH 42 2:06:05 05:29 10.95
83 1248 ASH SIUZDAK SH 43 2:06:47 05:31 10.88
84 1238 ALEXANDRE WILLEM V1 27 2:07:17 05:32 10.84
85 5679 KHALED BEJI V3 2 2:07:24 05:32 10.83
86 1430 BRUNO CHRISTIAEN V1 28 2:07:39 05:33 10.81
87 1141 RUDY DE KEYSER V2 6 2:07:53 05:34 10.79
88 5673 ARNAUD VANDERBERGHE V1 29 2:08:58 05:36 10.70
89 5686 RÉMI VANCLUYSEN SH 44 2:09:06 05:37 10.69
90 1217 JORGE RAMOS SH 45 2:09:14 05:37 10.68
91 1436 ALEXIS BERTRAND SH 46 2:09:25 05:38 10.66
92 212 FRANK BULENS V2 7 2:09:30 05:38 10.66
93 1334 MANUEL CONCHUELA V2 8 2:09:33 05:38 10.65
94 1409 JEAN-SÉBASTIEN VIERENDEEL SH 47 2:09:44 05:38 10.64
95 1455 JOHNATHAN VERMEERSCH V1 30 2:09:48 05:39 10.63
96 5700 SÉBASTIEN DELNESTE V1 31 2:09:58 05:39 10.62
97 3221 GERGELY TORNYAI SH 48 2:10:26 05:40 10.58
98 1412 LOÏC VANDER STRICHT SH 49 2:10:56 05:42 10.54
99 1500 NICOLA CIMINI V2 9 2:11:01 05:42 10.53
100 1092 AUGUSTIN DE LA MOTTE SH 50 2:11:09 05:42 10.52
101 138 ANTHONY CORDARO SH 51 2:11:44 05:44 10.48
102 358 YIORGOS KARVOUNIS V1 32 2:11:50 05:44 10.47
103 1085 GATIEN BARON SH 52 2:11:57 05:44 10.46
104 1492 NICOLAS COQUELET SH 53 2:12:20 05:45 10.43
105 246 KAREN CLAES SD 6 2:13:22 05:48 10.35
106 1210 ROBERT HINTZE SH 54 2:13:31 05:48 10.34
107 1017 ISABELLE ALLIET SD 7 2:13:41 05:49 10.32
108 5697 JEAN LUC GAL V2 10 2:13:50 05:49 10.31
109 1198 NICOLAS JACQUEMIN SH 55 2:14:38 05:51 10.25
110 1055 PETER VANDER VEKEN V3 3 2:15:12 05:53 10.21
111 1056 WOUTER VANDER VEKEN SH 56 2:15:13 05:53 10.21
112 3225 HADRIEN VAN HECKE SH 57 2:15:14 05:53 10.20
113 1431 MÉLANIE HENRY SD 8 2:15:39 05:54 10.17
114 1427 RAF MARIEN V2 11 2:16:25 05:56 10.12
115 1139 AARON POZZOLO SH 58 2:16:34 05:56 10.10
116 1464 ANTHONY VANDEUREN V1 33 2:17:02 05:57 10.07
117 1222 FIRDEVS CICEKDEMIR SD 9 2:17:43 05:59 10.02
118 1070 JAN VAN DURME V2 12 2:18:42 06:02 9.95
119 1029 BAVO KETELE SH 59 2:18:48 06:02 9.94
120 1031 WOUTER WILLEKENS SH 60 2:18:49 06:02 9.94
121 3202 ERIC BOEREBOOM V1 34 2:19:02 06:03 9.93
122 1434 GAUTHIER REMICHE V1 35 2:19:07 06:03 9.92
123 149 TIM EKER SH 61 2:19:29 06:04 9.89
124 1387 TYTECA THOMAS SH 62 2:19:43 06:04 9.88
125 1086 JOSEPH MONTAGNE SH 63 2:20:28 06:06 9.82
126 1093 ARNAUD DE CAZAUX SH 64 2:20:29 06:06 9.82
127 3200 JEROEN NEDERGEDAELT SH 65 2:20:36 06:07 9.82
128 1270 OLIVIER ALEXANDRIEN SH 66 2:20:53 06:08 9.80
129 1483 BART DE GRUYTER V1 36 2:20:54 06:08 9.79
130 1486 MONIKA ZSIGRI A1 2 2:20:55 06:08 9.79
131 1030 JAN LAURENS SH 67 2:21:17 06:09 9.77
132 1034 XAVIER VERHAEGHE V2 13 2:22:07 06:11 9.71
133 1456 EDDY CREPIN V1 37 2:22:40 06:12 9.67
134 1383 LIONEL GOSSERIES V1 38 2:23:06 06:13 9.64
135 467 STIJN VANDEGEUCHTE V1 39 2:23:21 06:14 9.63
136 1377 TOM MEURRENS V1 40 2:23:49 06:15 9.60
137 1254 OLIVIER KAHNES V2 14 2:24:03 06:16 9.58
138 1354 LINN BOSMANS A1 3 2:24:07 06:16 9.58
139 1249 JORIS CARPENTIER SH 68 2:24:27 06:17 9.55
140 1247 ANTON STAPPERS SH 69 2:24:28 06:17 9.55
141 5698 FRÉDÉRIC JONGLEZ DE LIGNE V1 41 2:24:48 06:18 9.53
142 5692 JEAN-PIERRE HAUTFENNE SH 70 2:24:57 06:18 9.52
143 433 LUCAS VANDENEEDE SH 71 2:25:04 06:18 9.51
144 3223 EELKO LUPPES V1 42 2:25:25 06:19 9.49
145 3224 KARIN REVERS SD 10 2:25:25 06:19 9.49
146 1271 LINDA BENSCH A3 2 2:25:53 06:21 9.46
147 1258 BART DEFERME V3 4 2:25:53 06:21 9.46
148 5671 WILLEM SCHRAUWEN V2 15 2:26:04 06:21 9.45
149 1495 AXELLE DEGRAVE SD 11 2:26:16 06:22 9.43
150 1413 FRANCK WAMBO V1 43 2:26:16 06:22 9.43
151 1454 NOÉMIE TYTECA SD 12 2:26:17 06:22 9.43
152 1276 JONAS VANVOLSEM SH 72 2:26:23 06:22 9.43
153 5676 KRIS BRAEM SH 73 2:26:45 06:23 9.40
154 1435 NATHALIE PIERARD A1 4 2:26:54 06:23 9.39
155 1433 BLANDINE LAMARRE A1 5 2:27:42 06:25 9.34
156 1021 ALAIN NDONGSON V1 44 2:28:16 06:27 9.31
157 32 RUTGER CLAES SH 74 2:28:32 06:27 9.29
158 5691 KOEN VANDERCAPPELLEN V1 45 2:29:24 06:30 9.24
159 5690 CHANTAL JANSSENS A2 1 2:29:24 06:30 9.24
160 5703 MAXIME DÔME SH 75 2:29:56 06:31 9.20
161 1197 WERNER BOONE V1 46 2:30:08 06:32 9.19
162 1397 AXELLE STANDAERT SD 13 2:30:30 06:33 9.17
163 126 NIELS RONSMANS SH 76 2:30:35 06:33 9.16
164 1457 DAMIEN DELCROIX V1 47 2:31:26 06:35 9.11
165 1020 ANNELEEN LAUWERS A2 2 02:33:17 06:40 9.00
166 1160 EVI CUPPERS A1 6 02:33:17 06:40 9.00
167 1102 ANOUCHKA STOCKMAN A2 3 02:33:18 06:40 9.00
168 1312 XAVIER SCHENA V1 48 02:33:51 06:41 8.97
169 3207 MAURITS VERMEER V1 49 02:34:21 06:43 8.94
170 1425 KYRIA LECOCQ SD 14 02:34:22 06:43 8.94
171 1451 JEAN WILMET SH 77 02:34:55 06:44 8.91
172 1498 DIMITRI CLEYS V1 50 02:34:57 06:44 8.91
173 1438 ENRIQUE VAN STEENWINKEL V1 51 02:35:37 06:46 8.87
174 1418 KRISTOF LAVAERT V1 52 02:39:13 06:55 8.67
175 1432 DIRK D’HAMERS V3 5 02:39:14 06:55 8.67
176 3201 WIM DEPRAETER V2 16 02:39:14 06:55 8.67
177 1386 LEONARDO GORI SH 78 02:40:14 06:58 8.61
178 1101 DIRK DROESBEKE V1 53 02:40:54 07:00 8.58
179 3206 BENJAMIN DOCQUIR V1 54 02:41:28 07:01 8.55
180 1261 KRISTOF VERSCHAETSE V2 17 02:42:33 07:04 8.49
181 1206 STEPHANIE VAN DELSEN A1 7 02:42:40 07:04 8.48
182 1088 OLIVIER SCUTENAIRE SH 79 02:42:42 07:04 8.48
183 5672 CINDY TETTELIN A1 8 02:43:20 07:06 8.45
184 1159 JEREMY JOOS SH 80 02:43:21 07:06 8.45
185 104 SANDER VAN GOOL SH 81 02:43:46 07:07 8.43
186 1028 CRYSTAL FURUYA A1 9 02:47:18 07:16 8.25
187 552 ANN VAN SAMANG A2 4 03:03:48 07:59 7.51
               
Nos dernières videos